Tracking 19177 objects as of 24-May-2018
HD Live streaming from Space Station
objects crossing your sky now

FTV 3502

Track FTV 3502 now!
10-day predictions
FTV 3502 is classified as:


NORAD ID: 369
Int'l Code: 1962-039A
Perigee: 561.4 km
Apogee: 689.3 km
Inclination: 98.5 °
Period: 97.1 minutes
Semi major axis: 6996 km
RCS: 0.3492 m2 (medium)
Launch date: August 23, 1962
Source: United States (US)
Launch site: AIR FORCE WESTERN TEST RANGE (AFWTR)
aabbcc
Your satellite tracking list
Your tracking list is empty




NASA's NSSDC Master Catalog

Two Line Element Set (TLE):
1   369U 62039A   18143.54233627 +.00000107 +00000-0 +20068-4 0  9995
2   369 098.5438 346.7509 0091389 265.6883 093.3882 14.83518896978458
Source of the keplerian elements: AFSPC